Weather History for KSBS - November, 2012

Change the Weather History Date:

Saturday, November 24, 2012

  Actual Average Record
Temperature  
Mean Temperature 36 °F -  
Max Temperature 54 °F 37 °F 61 °F (1939)
Min Temperature 18 °F 10 °F -17 °F (1930)
Degree Days  
Heating Degree Days 29    
Moisture  
Dew Point 13 °F    
Average Humidity 48    
Maximum Humidity 83    
Minimum Humidity 16    
Precipitation  
Precipitation 0.00 in - - ()
Sea Level Pressure  
Sea Level Pressure 30.24 in    
Wind  
Wind Speed 1 mph (WSW)    
Max Wind Speed 16 mph    
Max Gust Speed 22 mph    
Visibility 10 miles    
Events      
Averages and records for this station are not official NWS values.
T = Trace of Precipitation, MM = Missing Value Source: NWS Daily Summary

Daily Weather History Graph

Daily Weather History Graph

Search for Another Location

Airport or City:

Trip Planner

Search our weather history database for the weather conditions in past years. The results will help you decide how hot, cold, wet, or windy it might be!

Date:

Astronomy

Nov. 24, 2012 Rise Set
Actual Time 7:04 AM MST 4:43 PM MST
Civil Twilight 6:34 AM MST 5:13 PM MST
Nautical Twilight 6:01 AM MST 5:47 PM MST
Astronomical Twilight 5:28 AM MST 6:19 PM MST
Moon 2:30 PM MST (11/24) 3:23 AM MST (11/24)
Length of Visible Light 10h 38m
Length of Day
9h 38m
Waxing Gibbous, 87% of the Moon is Illuminated
Nov 24
Waxing Gibbous
Nov 28
Full
Dec 6
Last Quarter
Dec 13
New
Dec 19
First Quarter

Hourly Weather History & Observations

Time (MST) Temp. Windchill Dew Point Humidity Pressure Visibility Wind Dir Wind Speed Gust Speed Precip Events Conditions
12:15 AM 23.2 °F - 15.8 °F 73% 30.39 in 10.0 mi Calm Calm - N/A   Clear
12:35 AM 26.4 °F - 15.3 °F 63% 30.38 in 10.0 mi Calm Calm - N/A   Clear
12:55 AM 24.3 °F - 15.8 °F 70% 30.38 in 10.0 mi Calm Calm - N/A   Clear
1:15 AM 23.9 °F - 15.8 °F 71% 30.38 in 10.0 mi Calm Calm - N/A   Clear
1:35 AM 26.4 °F - 15.6 °F 64% 30.38 in 10.0 mi Calm Calm - N/A   Clear
1:55 AM 25.5 °F - 15.6 °F 66% 30.37 in 10.0 mi Calm Calm - N/A   Clear
2:15 AM 26.8 °F - 15.4 °F 62% 30.37 in 10.0 mi Calm Calm - N/A   Clear
2:35 AM 25.3 °F - 15.4 °F 66% 30.37 in 10.0 mi Calm Calm - N/A   Clear
2:55 AM 23.0 °F - 15.8 °F 74% 30.36 in 10.0 mi Calm Calm - N/A   Clear
3:15 AM 25.2 °F - 15.3 °F 66% 30.35 in 10.0 mi Calm Calm - N/A   Clear
3:35 AM 23.7 °F - 15.1 °F 70% 30.35 in 10.0 mi Calm Calm - N/A   Clear
3:55 AM 23.0 °F - 15.6 °F 73% 30.35 in 10.0 mi Calm Calm - N/A   Clear
4:15 AM 24.6 °F - 15.1 °F 67% 30.34 in 10.0 mi Calm Calm - N/A   Clear
4:35 AM 22.5 °F - 15.1 °F 73% 30.34 in 10.0 mi Calm Calm - N/A   Clear
4:55 AM 23.4 °F - 15.3 °F 71% 30.34 in 10.0 mi Calm Calm - N/A   Clear
5:15 AM 23.0 °F - 15.6 °F 73% 30.33 in 10.0 mi Calm Calm - N/A   Clear
5:35 AM 22.6 °F - 15.1 °F 73% 30.33 in 10.0 mi Calm Calm - N/A   Clear
5:55 AM 21.4 °F - 16.0 °F 80% 30.32 in 10.0 mi Calm Calm - N/A   Clear
6:15 AM 20.5 °F - 14.9 °F 79% 30.32 in 10.0 mi Calm Calm - N/A   Clear
6:35 AM 18.5 °F - 14.2 °F 83% 30.33 in 10.0 mi Calm Calm - N/A   Clear
6:55 AM 19.8 °F 13.2 °F 15.1 °F 82% 30.32 in 10.0 mi East 4.6 mph - N/A   Clear
7:15 AM 21.7 °F - 13.6 °F 71% 30.32 in 10.0 mi Calm Calm - N/A   Clear
7:35 AM 21.9 °F - 15.4 °F 76% 30.32 in 10.0 mi Calm Calm - N/A   Clear
7:55 AM 22.1 °F - 15.6 °F 76% 30.32 in 10.0 mi Calm Calm - N/A   Clear
8:15 AM 22.3 °F - 16.0 °F 77% 30.33 in 10.0 mi Calm Calm - N/A   Clear
8:35 AM 25.0 °F - 17.4 °F 73% 30.32 in 10.0 mi Calm Calm - N/A   Clear
8:55 AM 26.1 °F - 17.1 °F 69% 30.32 in 10.0 mi Calm Calm - N/A   Clear
9:15 AM 28.9 °F - 18.5 °F 65% 30.32 in 10.0 mi Calm Calm - N/A   Clear
9:35 AM 32.0 °F - 18.7 °F 58% 30.32 in 10.0 mi Calm Calm - N/A   Clear
9:55 AM 32.7 °F - 18.1 °F 55% 30.31 in 10.0 mi Calm Calm - N/A   Clear
10:15 AM 35.4 °F - 19.8 °F 53% 30.30 in 10.0 mi Calm Calm - N/A   Clear
10:35 AM 37.8 °F - 19.2 °F 47% 30.29 in 10.0 mi Calm Calm - N/A   Clear
10:55 AM 40.6 °F - 17.8 °F 40% 30.27 in 10.0 mi Calm Calm - N/A   Clear
11:15 AM 42.3 °F - 15.1 °F 33% 30.26 in 10.0 mi Calm Calm - N/A   Clear
11:35 AM 45.0 °F - 13.8 °F 29% 30.24 in 10.0 mi Calm Calm - N/A   Clear
11:55 AM 47.3 °F - 12.7 °F 25% 30.23 in 10.0 mi Calm Calm - N/A   Clear
12:15 PM 49.5 °F - 11.7 °F 22% 30.21 in 10.0 mi Calm Calm - N/A   Clear
12:35 PM 49.5 °F - 10.8 °F 21% 30.20 in 10.0 mi Calm Calm - N/A   Clear
12:55 PM 50.9 °F - 10.0 °F 19% 30.19 in 10.0 mi Calm Calm - N/A   Clear
1:15 PM 51.1 °F - 10.2 °F 19% 30.18 in 10.0 mi Calm Calm - N/A   Clear
1:35 PM 51.6 °F - 10.6 °F 19% 30.17 in 10.0 mi Calm Calm - N/A   Clear
1:55 PM 53.6 °F - 11.5 °F 19% 30.17 in 10.0 mi Calm Calm - N/A   Clear
2:15 PM 54.5 °F - 9.7 °F 17% 30.16 in 10.0 mi WSW 9.2 mph - N/A   Clear
2:35 PM 53.8 °F - 9.0 °F 17% 30.15 in 10.0 mi WSW 16.1 mph - N/A   Clear
2:55 PM 54.1 °F - 7.9 °F 16% 30.15 in 10.0 mi West 11.5 mph 19.6 mph N/A   Clear
3:15 PM 53.1 °F - 7.7 °F 16% 30.14 in 10.0 mi West 13.8 mph 21.9 mph N/A   Clear
3:35 PM 52.9 °F - 7.0 °F 16% 30.14 in 10.0 mi West 11.5 mph 17.3 mph N/A   Clear
3:55 PM 52.0 °F - 7.0 °F 16% 30.14 in 10.0 mi West 11.5 mph 19.6 mph N/A   Clear
4:15 PM 50.5 °F - 7.5 °F 18% 30.14 in 10.0 mi West 6.9 mph - N/A   Clear
4:35 PM 48.4 °F - 7.5 °F 19% 30.14 in 10.0 mi West 4.6 mph - N/A   Clear
4:55 PM 46.4 °F 45.2 °F 7.3 °F 20% 30.14 in 10.0 mi West 3.5 mph - N/A   Clear
5:15 PM 43.9 °F - 8.2 °F 23% 30.14 in 10.0 mi Calm Calm - N/A   Clear
5:35 PM 43.9 °F - 8.1 °F 23% 30.14 in 10.0 mi Calm Calm - N/A   Clear
5:55 PM 45.0 °F - 7.7 °F 22% 30.14 in 10.0 mi Calm Calm - N/A   Clear
6:15 PM 43.5 °F - 8.6 °F 24% 30.14 in 10.0 mi Calm Calm - N/A   Clear
6:35 PM 42.3 °F - 9.1 °F 26% 30.13 in 10.0 mi Calm Calm - N/A   Clear
6:55 PM 42.1 °F - 9.1 °F 26% 30.14 in 10.0 mi Calm Calm - N/A   Clear
7:15 PM 38.1 °F - 10.9 °F 33% 30.14 in 10.0 mi Calm Calm - N/A   Clear
7:35 PM 38.3 °F - 10.8 °F 32% 30.13 in 10.0 mi Calm Calm - N/A   Clear
7:55 PM 38.7 °F 35.2 °F 10.2 °F 31% 30.13 in 10.0 mi East 4.6 mph - N/A   Clear
8:15 PM 33.8 °F 30.8 °F 12.4 °F 41% 30.13 in 10.0 mi ESE 3.5 mph - N/A   Clear
8:35 PM 33.3 °F 30.2 °F 13.6 °F 44% 30.13 in 10.0 mi East 3.5 mph - N/A   Clear
8:55 PM 32.4 °F - 14.0 °F 47% 30.13 in 10.0 mi Calm Calm - N/A   Clear
9:15 PM 32.2 °F 25.0 °F 13.6 °F 46% 30.12 in 10.0 mi East 8.1 mph - N/A   Clear
9:35 PM 33.3 °F - 13.3 °F 44% 30.13 in 10.0 mi Calm Calm - N/A   Clear
9:55 PM 32.7 °F - 13.1 °F 44% 30.13 in 10.0 mi Calm Calm - N/A   Clear
10:15 PM 30.2 °F - 14.7 °F 53% 30.12 in 10.0 mi Calm Calm - N/A   Clear
10:35 PM 28.6 °F - 14.4 °F 55% 30.12 in 10.0 mi Calm Calm - N/A   Clear
10:55 PM 29.3 °F - 14.5 °F 54% 30.12 in 10.0 mi Calm Calm - N/A   Clear
11:15 PM 28.9 °F - 14.4 °F 55% 30.11 in 10.0 mi Calm Calm - N/A   Clear
11:35 PM 26.8 °F - 14.7 °F 60% 30.11 in 10.0 mi Calm Calm - N/A   Clear
11:55 PM 27.5 °F - 14.9 °F 59% 30.10 in 10.0 mi Calm Calm - N/A   Clear